| time (UTC) | temp F | wind direction | speed knots | gust knots | rain 1hr in | rain 24hr in | rain mn in | humidity % | barometer mb |
| 20260505041718 | 62 | 309 | 3.5 | 7.0 | 0.00 | 0.00 | 0.00 | 74 | 1012.0 |
| 20260505041219 | 62 | 313 | 5.2 | 7.8 | 0.00 | 0.00 | 0.00 | 75 | 1012.0 |
| 20260505040719 | 62 | 277 | 2.6 | 3.5 | 0.00 | 0.00 | 0.00 | 74 | 1013.0 |
| 20260505040218 | 62 | 298 | 3.5 | 9.6 | 0.00 | 0.00 | 0.00 | 75 | 1013.0 |
| 20260505035718 | 62 | 313 | 3.5 | 7.0 | 0.00 | 0.00 | 0.00 | 74 | 1013.0 |
| 20260505035218 | 62 | 319 | 4.3 | 7.8 | 0.00 | 0.00 | 0.00 | 74 | 1012.0 |
| 20260505034718 | 61 | 318 | 4.3 | 7.8 | 0.00 | 0.00 | 0.00 | 75 | 1013.0 |
| 20260505034219 | 61 | 311 | 3.5 | 7.0 | 0.00 | 0.00 | 0.00 | 75 | 1013.0 |
| 20260505033718 | 61 | 309 | 3.5 | 7.8 | 0.00 | 0.00 | 0.00 | 75 | 1012.0 |
| 20260505033218 | 61 | 281 | 2.6 | 7.0 | 0.00 | 0.00 | 0.00 | 75 | 1012.0 |
| 20260505032718 | 61 | 259 | 3.5 | 7.0 | 0.00 | 0.00 | 0.00 | 75 | 1012.0 |
| 20260505032218 | 61 | 253 | 5.2 | 8.7 | 0.00 | 0.00 | 0.00 | 75 | 1012.0 |
| 20260505031718 | 61 | 251 | 6.1 | 7.8 | 0.00 | 0.00 | 0.00 | 75 | 1012.0 |
| 20260505031218 | 61 | 264 | 4.3 | 6.1 | 0.00 | 0.00 | 0.00 | 75 | 1012.0 |
| 20260505030719 | 61 | 256 | 5.2 | 7.8 | 0.00 | 0.00 | 0.00 | 74 | 1012.0 |
| 20260505030218 | 61 | 259 | 5.2 | 7.8 | 0.00 | 0.00 | 0.00 | 74 | 1012.0 |
| 20260505025719 | 61 | 253 | 5.2 | 7.0 | 0.00 | 0.00 | 0.00 | 74 | 1012.0 |
| 20260505025218 | 61 | 259 | 5.2 | 6.1 | 0.00 | 0.00 | 0.00 | 74 | 1012.0 |
| 20260505024718 | 61 | 257 | 4.3 | 7.0 | 0.00 | 0.00 | 0.00 | 73 | 1012.0 |
| 20260505024220 | 61 | 256 | 4.3 | 6.1 | 0.00 | 0.00 | 0.00 | 73 | 1012.0 |
| 20260505023718 | 62 | 246 | 4.3 | 7.0 | 0.00 | 0.00 | 0.00 | 73 | 1012.0 |
| 20260505023219 | 62 | 255 | 5.2 | 7.8 | 0.00 | 0.00 | 0.00 | 72 | 1012.0 |
| 20260505022719 | 62 | 252 | 4.3 | 6.1 | 0.00 | 0.00 | 0.00 | 72 | 1012.0 |
| 20260505022220 | 62 | 258 | 5.2 | 7.8 | 0.00 | 0.00 | 0.00 | 71 | 1012.0 |
| 20260505021719 | 62 | 263 | 4.3 | 7.8 | 0.00 | 0.00 | 0.00 | 71 | 1012.0 |
| 20260505021218 | 62 | 261 | 5.2 | 7.0 | 0.00 | 0.00 | 0.00 | 71 | 1012.0 |
| 20260505020718 | 62 | 257 | 5.2 | 7.0 | 0.00 | 0.00 | 0.00 | 70 | 1012.0 |
| 20260505020218 | 62 | 257 | 4.3 | 7.0 | 0.00 | 0.00 | 0.00 | 69 | 1012.0 |
| 20260505015718 | 62 | 262 | 4.3 | 6.1 | 0.00 | 0.00 | 0.00 | 69 | 1012.0 |
| 20260505015219 | 62 | 255 | 4.3 | 7.0 | 0.00 | 0.00 | 0.00 | 68 | 1012.0 |
| 20260505014719 | 62 | 261 | 5.2 | 8.7 | 0.00 | 0.00 | 0.00 | 67 | 1012.0 |
| 20260505014219 | 62 | 257 | 5.2 | 7.0 | 0.00 | 0.00 | 0.00 | 68 | 1012.0 |
| 20260505013719 | 62 | 253 | 4.3 | 6.1 | 0.00 | 0.00 | 0.00 | 66 | 1012.0 |
| 20260505013218 | 62 | 256 | 4.3 | 7.8 | 0.00 | 0.00 | 0.00 | 67 | 1012.0 |
| 20260505012718 | 62 | 260 | 4.3 | 6.1 | 0.00 | 0.00 | 0.00 | 66 | 1012.0 |
| 20260505012219 | 62 | 256 | 4.3 | 5.2 | 0.00 | 0.00 | 0.00 | 66 | 1012.0 |
| 20260505011721 | 62 | 250 | 4.3 | 6.1 | 0.00 | 0.00 | 0.00 | 65 | 1012.0 |
| 20260505011218 | 63 | 243 | 4.3 | 7.8 | 0.00 | 0.00 | 0.00 | 64 | 1012.0 |
| 20260505010718 | 63 | 248 | 4.3 | 6.1 | 0.00 | 0.00 | 0.00 | 64 | 1012.0 |
| 20260505010218 | 63 | 249 | 4.3 | 6.1 | 0.00 | 0.00 | 0.00 | 63 | 1012.0 |
| 20260505005719 | 64 | 246 | 3.5 | 4.3 | 0.00 | 0.00 | 0.00 | 63 | 1012.0 |
| 20260505005219 | 64 | 263 | 6.1 | 8.7 | 0.00 | 0.00 | 0.00 | 61 | 1012.0 |
| 20260505004720 | 64 | 259 | 4.3 | 6.1 | 0.00 | 0.00 | 0.00 | 61 | 1012.0 |
| 20260505004218 | 64 | 247 | 2.6 | 4.3 | 0.00 | 0.00 | 0.00 | 62 | 1012.0 |
| 20260505003718 | 64 | 257 | 4.3 | 7.8 | 0.00 | 0.00 | 0.00 | 61 | 1012.0 |
| 20260505003218 | 64 | 249 | 4.3 | 7.0 | 0.00 | 0.00 | 0.00 | 61 | 1012.0 |
| 20260505002718 | 65 | 248 | 3.5 | 5.2 | 0.00 | 0.00 | 0.00 | 60 | 1012.0 |
| 20260505002218 | 65 | 238 | 3.5 | 4.3 | 0.00 | 0.00 | 0.00 | 60 | 1012.0 |
| 20260505001719 | 66 | 257 | 3.5 | 5.2 | 0.00 | 0.00 | 0.00 | 57 | 1012.0 |
| 20260505001218 | 67 | 262 | 6.1 | 8.7 | 0.00 | 0.00 | 0.00 | 56 | 1012.0 |
| 20260505000719 | 67 | 262 | 5.2 | 7.0 | 0.00 | 0.00 | 0.00 | 55 | 1012.0 |
| 20260505000219 | 67 | 262 | 5.2 | 7.8 | 0.00 | 0.00 | 0.00 | 55 | 1012.0 |
| 20260504235718 | 67 | 267 | 5.2 | 7.0 | 0.00 | 0.00 | 0.00 | 54 | 1012.0 |
| 20260504235219 | 68 | 257 | 3.5 | 6.1 | 0.00 | 0.00 | 0.00 | 54 | 1012.0 |
| 20260504234719 | 68 | 254 | 5.2 | 7.8 | 0.00 | 0.00 | 0.00 | 55 | 1012.0 |
| 20260504234218 | 68 | 261 | 4.3 | 7.0 | 0.00 | 0.00 | 0.00 | 54 | 1012.0 |
| 20260504233718 | 69 | 258 | 4.3 | 6.1 | 0.00 | 0.00 | 0.00 | 54 | 1012.0 |
| 20260504233218 | 69 | 261 | 5.2 | 7.8 | 0.00 | 0.00 | 0.00 | 54 | 1012.0 |
| 20260504232718 | 69 | 259 | 7.0 | 9.6 | 0.00 | 0.00 | 0.00 | 53 | 1011.0 |
| 20260504232220 | 70 | 259 | 5.2 | 9.6 | 0.00 | 0.00 | 0.00 | 52 | 1011.0 |
| 20260504231720 | 71 | 257 | 6.1 | 9.6 | 0.00 | 0.00 | 0.00 | 50 | 1011.0 |
| 20260504231220 | 72 | 256 | 5.2 | 8.7 | 0.00 | 0.00 | 0.00 | 39 | 1011.0 |
| 20260504230718 | 73 | 269 | 5.2 | 8.7 | 0.00 | 0.00 | 0.00 | 38 | 1011.0 |
| 20260504230219 | 73 | 306 | 6.1 | 9.6 | 0.00 | 0.00 | 0.00 | 37 | 1011.0 |
| 20260504225718 | 73 | 316 | 7.0 | 9.6 | 0.00 | 0.00 | 0.00 | 37 | 1011.0 |
| 20260504225218 | 73 | 300 | 5.2 | 7.8 | 0.00 | 0.00 | 0.00 | 37 | 1011.0 |
| 20260504224718 | 73 | 285 | 3.5 | 6.1 | 0.00 | 0.00 | 0.00 | 37 | 1011.0 |
| 20260504224218 | 73 | 312 | 6.1 | 13.0 | 0.00 | 0.00 | 0.00 | 37 | 1011.0 |
| 20260504223718 | 74 | 317 | 4.3 | 9.6 | 0.00 | 0.00 | 0.00 | 38 | 1011.0 |
| 20260504223218 | 74 | 282 | 3.5 | 6.1 | 0.00 | 0.00 | 0.00 | 38 | 1011.0 |
| 20260504222718 | 74 | 301 | 5.2 | 9.6 | 0.00 | 0.00 | 0.00 | 38 | 1011.0 |
| 20260504222219 | 74 | 307 | 3.5 | 6.1 | 0.00 | 0.00 | 0.00 | 38 | 1011.0 |
| 20260504221719 | 74 | 321 | 4.3 | 9.6 | 0.00 | 0.00 | 0.00 | 38 | 1011.0 |
| 20260504221218 | 74 | 318 | 4.3 | 7.0 | 0.00 | 0.00 | 0.00 | 38 | 1011.0 |
| 20260504220718 | 74 | 317 | 5.2 | 10.4 | 0.00 | 0.00 | 0.00 | 38 | 1011.0 |
| 20260504220218 | 74 | 311 | 4.3 | 8.7 | 0.00 | 0.00 | 0.00 | 38 | 1011.0 |
| 20260504215720 | 74 | 17 | 1.7 | 3.5 | 0.00 | 0.00 | 0.00 | 38 | 1011.0 |
| 20260504215218 | 74 | 307 | 6.1 | 7.8 | 0.00 | 0.00 | 0.00 | 37 | 1011.0 |
| 20260504214718 | 74 | 333 | 5.2 | 8.7 | 0.00 | 0.00 | 0.00 | 37 | 1011.0 |
| 20260504214219 | 74 | 339 | 5.2 | 7.8 | 0.00 | 0.00 | 0.00 | 37 | 1012.0 |
| 20260504213718 | 75 | 352 | 3.5 | 7.0 | 0.00 | 0.00 | 0.00 | 37 | 1011.0 |
| 20260504213218 | 75 | 331 | 3.5 | 6.1 | 0.00 | 0.00 | 0.00 | 37 | 1012.0 |
| 20260504212718 | 74 | 323 | 5.2 | 7.0 | 0.00 | 0.00 | 0.00 | 37 | 1011.0 |
| 20260504212218 | 74 | 316 | 8.7 | 13.0 | 0.00 | 0.00 | 0.00 | 37 | 1011.0 |
| 20260504211718 | 74 | 310 | 6.1 | 8.7 | 0.00 | 0.00 | 0.00 | 37 | 1012.0 |
| 20260504211219 | 75 | 309 | 4.3 | 7.8 | 0.00 | 0.00 | 0.00 | 38 | 1011.0 |
| 20260504210719 | 75 | 308 | 6.1 | 8.7 | 0.00 | 0.00 | 0.00 | 37 | 1012.0 |
| 20260504210219 | 75 | 275 | 4.3 | 7.8 | 0.00 | 0.00 | 0.00 | 38 | 1011.0 |
| 20260504205718 | 75 | 312 | 5.2 | 7.0 | 0.00 | 0.00 | 0.00 | 38 | 1011.0 |
| 20260504205218 | 74 | 313 | 3.5 | 7.0 | 0.00 | 0.00 | 0.00 | 38 | 1012.0 |
| 20260504204718 | 75 | 315 | 4.3 | 7.8 | 0.00 | 0.00 | 0.00 | 38 | 1012.0 |
| 20260504204219 | 75 | 314 | 3.5 | 6.1 | 0.00 | 0.00 | 0.00 | 37 | 1012.0 |
| 20260504203718 | 75 | 341 | 3.5 | 7.8 | 0.00 | 0.00 | 0.00 | 37 | 1012.0 |
| 20260504203219 | 74 | 312 | 4.3 | 9.6 | 0.00 | 0.00 | 0.00 | 38 | 1012.0 |
| 20260504202719 | 74 | 343 | 6.1 | 11.3 | 0.00 | 0.00 | 0.00 | 37 | 1012.0 |
| 20260504202219 | 74 | 307 | 5.2 | 7.8 | 0.00 | 0.00 | 0.00 | 38 | 1012.0 |
| 20260504201718 | 74 | 302 | 4.3 | 8.7 | 0.00 | 0.00 | 0.00 | 38 | 1012.0 |
| 20260504201218 | 74 | 314 | 4.3 | 6.1 | 0.00 | 0.00 | 0.00 | 38 | 1012.0 |
| 20260504200718 | 74 | 318 | 3.5 | 9.6 | 0.00 | 0.00 | 0.00 | 38 | 1012.0 |
| 20260504200227 | 75 | 311 | 5.2 | 7.0 | 0.00 | 0.00 | 0.00 | 38 | 1012.0 |
| 20260504195718 | 75 | 323 | 4.3 | 7.8 | 0.00 | 0.00 | 0.00 | 37 | 1012.0 |
| 20260504195218 | 75 | 313 | 4.3 | 7.0 | 0.00 | 0.00 | 0.00 | 38 | 1012.0 |
| 20260504194718 | 74 | 282 | 6.1 | 7.8 | 0.00 | 0.00 | 0.00 | 39 | 1012.0 |
| 20260504194220 | 75 | 333 | 2.6 | 5.2 | 0.00 | 0.00 | 0.00 | 37 | 1012.0 |
| 20260504193719 | 74 | 297 | 4.3 | 11.3 | 0.00 | 0.00 | 0.00 | 39 | 1012.0 |
| 20260504193218 | 74 | 319 | 3.5 | 7.0 | 0.00 | 0.00 | 0.00 | 39 | 1012.0 |
| 20260504192719 | 74 | 357 | 7.0 | 8.7 | 0.00 | 0.00 | 0.00 | 38 | 1012.0 |
| 20260504192218 | 75 | 355 | 7.0 | 8.7 | 0.00 | 0.00 | 0.00 | 37 | 1012.0 |
| 20260504191720 | 74 | 340 | 6.1 | 8.7 | 0.00 | 0.00 | 0.00 | 36 | 1012.0 |
| 20260504191218 | 74 | 4 | 6.1 | 8.7 | 0.00 | 0.00 | 0.00 | 36 | 1012.0 |
| 20260504190718 | 74 | 326 | 2.6 | 4.3 | 0.00 | 0.00 | 0.00 | 38 | 1012.0 |
| 20260504190219 | 75 | 352 | 7.8 | 11.3 | 0.00 | 0.00 | 0.00 | 36 | 1012.0 |
| 20260504185721 | 74 | 325 | 5.2 | 8.7 | 0.00 | 0.00 | 0.00 | 37 | 1012.0 |
| 20260504185219 | 74 | 341 | 3.5 | 5.2 | 0.00 | 0.00 | 0.00 | 37 | 1013.0 |
| 20260504184718 | 74 | 306 | 4.3 | 7.8 | 0.00 | 0.00 | 0.00 | 38 | 1013.0 |
| 20260504184219 | 74 | 316 | 4.3 | 7.0 | 0.00 | 0.00 | 0.00 | 37 | 1013.0 |
| 20260504183719 | 74 | 346 | 4.3 | 7.8 | 0.00 | 0.00 | 0.00 | 36 | 1013.0 |
| 20260504183220 | 73 | 8 | 6.1 | 9.6 | 0.00 | 0.00 | 0.00 | 37 | 1013.0 |
| 20260504182718 | 73 | 309 | 4.3 | 6.1 | 0.00 | 0.00 | 0.00 | 38 | 1013.0 |
| 20260504182218 | 74 | 315 | 3.5 | 7.8 | 0.00 | 0.00 | 0.00 | 36 | 1013.0 |
| 20260504181718 | 74 | 23 | 7.0 | 8.7 | 0.00 | 0.00 | 0.00 | 35 | 1013.0 |
| 20260504181218 | 74 | 16 | 7.0 | 9.6 | 0.00 | 0.00 | 0.00 | 36 | 1013.0 |
| 20260504180718 | 73 | 345 | 4.3 | 7.8 | 0.00 | 0.00 | 0.00 | 38 | 1013.0 |
| 20260504180218 | 73 | 341 | 5.2 | 9.6 | 0.00 | 0.00 | 0.00 | 36 | 1013.0 |
| 20260504175718 | 73 | 354 | 6.1 | 9.6 | 0.00 | 0.00 | 0.00 | 36 | 1013.0 |
| 20260504175219 | 73 | 336 | 3.5 | 6.1 | 0.00 | 0.00 | 0.00 | 38 | 1013.0 |
| 20260504174718 | 73 | 342 | 5.2 | 8.7 | 0.00 | 0.00 | 0.00 | 38 | 1013.0 |
| 20260504174219 | 72 | 307 | 7.0 | 12.2 | 0.00 | 0.00 | 0.00 | 38 | 1013.0 |
| 20260504173721 | 72 | 333 | 1.7 | 4.3 | 0.00 | 0.00 | 0.00 | 39 | 1013.0 |
| 20260504173219 | 73 | 28 | 7.0 | 12.2 | 0.00 | 0.00 | 0.00 | 37 | 1013.0 |
| 20260504172719 | 72 | 356 | 7.8 | 9.6 | 0.00 | 0.00 | 0.00 | 37 | 1013.0 |
| 20260504172219 | 72 | 342 | 7.0 | 10.4 | 0.00 | 0.00 | 0.00 | 38 | 1013.0 |
| 20260504171720 | 72 | 310 | 7.0 | 10.4 | 0.00 | 0.00 | 0.00 | 40 | 1014.0 |
| 20260504171218 | 72 | 316 | 7.8 | 12.2 | 0.00 | 0.00 | 0.00 | 39 | 1014.0 |
| 20260504170719 | 73 | 326 | 4.3 | 8.7 | 0.00 | 0.00 | 0.00 | 38 | 1014.0 |
| 20260504170219 | 72 | 348 | 5.2 | 7.8 | 0.00 | 0.00 | 0.00 | 39 | 1014.0 |
| 20260504160218 | 70 | 338 | 3.5 | 6.1 | 0.00 | 0.00 | 0.00 | 40 | 1014.0 |
| 20260504150719 | 68 | 343 | 6.1 | 9.6 | 0.00 | 0.00 | 0.00 | 47 | 1015.0 |
| 20260504150219 | 67 | 338 | 3.5 | 5.2 | 0.00 | 0.00 | 0.00 | 48 | 1015.0 |
| 20260504141220 | 64 | 300 | 4.3 | 8.7 | 0.00 | 0.00 | 0.00 | 54 | 1015.0 |
| 20260504140720 | 64 | 314 | 7.0 | 10.4 | 0.00 | 0.00 | 0.00 | 55 | 1015.0 |
| 20260504140221 | 64 | 328 | 5.2 | 7.8 | 0.00 | 0.00 | 0.00 | 56 | 1015.0 |
| 20260504130719 | 60 | 308 | 7.0 | 11.3 | 0.00 | 0.00 | 0.00 | 65 | 1016.0 |
| 20260504130221 | 60 | 318 | 7.8 | 12.2 | 0.00 | 0.00 | 0.00 | 65 | 1016.0 |
| 20260504120218 | 55 | 251 | 6.1 | 7.8 | 0.00 | 0.00 | 0.00 | 72 | 1016.0 |
| 20260504110718 | 51 | 248 | 4.3 | 6.1 | 0.00 | 0.00 | 0.00 | 79 | 1017.0 |
| 20260504110219 | 51 | 254 | 5.2 | 6.1 | 0.00 | 0.00 | 0.00 | 79 | 1017.0 |
| 20260504100221 | 50 | 244 | 2.6 | 4.3 | 0.00 | 0.00 | 0.00 | 80 | 1016.0 |
| 20260504081719 | 49 | 285 | 2.6 | 3.5 | 0.00 | 0.00 | 0.00 | 77 | 1017.0 |
| 20260504081219 | 49 | 263 | 2.6 | 4.3 | 0.00 | 0.00 | 0.00 | 77 | 1017.0 |
| 20260504080718 | 49 | 257 | 4.3 | 7.0 | 0.00 | 0.00 | 0.00 | 77 | 1017.0 |
| 20260504080219 | 48 | 260 | 3.5 | 7.0 | 0.00 | 0.00 | 0.00 | 76 | 1017.0 |
| 20260504070218 | 48 | 258 | 6.1 | 8.7 | 0.00 | 0.00 | 0.00 | 68 | 1017.0 |
| 20260504060218 | 46 | 284 | 3.5 | 4.3 | 0.00 | 0.00 | 0.00 | 67 | 1017.0 |
| 20260504050718 | 45 | 264 | 1.7 | 3.5 | 0.00 | 0.00 | 0.00 | 68 | 1017.0 |
| 20260504050219 | 45 | 263 | 1.7 | 3.5 | 0.00 | 0.00 | 0.00 | 69 | 1017.0 |
| 20260504045718 | 45 | 249 | 1.7 | 3.5 | 0.00 | 0.00 | 0.00 | 68 | 1017.0 |
| 20260504045218 | 45 | 312 | 2.6 | 4.3 | 0.00 | 0.00 | 0.00 | 67 | 1017.0 |
| 20260504044719 | 44 | 311 | 1.7 | 3.5 | 0.00 | 0.00 | 0.00 | 70 | 1017.0 |
| 20260504044218 | 43 | 217 | 1.7 | 3.5 | 0.00 | 0.00 | 0.00 | 70 | 1016.0 |
| 20260504043718 | 43 | 220 | 1.7 | 1.7 | 0.00 | 0.00 | 0.00 | 70 | 1017.0 |
| 20260504043218 | 43 | 216 | 0.0 | 1.7 | 0.00 | 0.00 | 0.00 | 69 | 1017.0 |
| 20260504042718 | 42 | 255 | 0.9 | 1.7 | 0.00 | 0.00 | 0.00 | 70 | 1017.0 |
| 20260504042219 | 42 | 0 | 0.0 | 0.0 | 0.00 | 0.00 | 0.00 | 71 | 1016.0 |